CAPE
86 67 109 61 79 119 182 207 222 263 341 404 360 491 545 553 721 747 731 745 704 692 862 954 727 873 875 817 745 777 797 673 611 617 381 572 661 291 508 797 744 742 716
96 73 65 170 129 136 227 175 148 183 245 416 414 471 539 477 633 689 743 828 712 729 540 664 711 642 659 665 690 616 691 606 621 466 485 697 386 194 597 671 672 439 521
146 86 59 111 154 135 279 381 433 416 433 492 540 582 581 572 604 661 620 605 687 593 695 481 529 583 622 500 544 641 616 601 617 651 541 269 137 418 521 565 363 278 818
215 176 124 131 188 240 362 365 430 419 434 452 499 432 477 512 529 658 646 672 720 691 695 700 775 756 703 575 548 553 559 528 443 465 353 109 283 433 510 502 153 201 659
293 273 195 193 236 429 404 373 375 423 490 492 507 548 533 565 589 654 668 824 800 752 704 634 667 618 689 709 661 595 579 554 517 504 316 275 238 258 438 325 102 0 373
386 352 242 238 383 482 391 426 483 564 452 505 538 511 409 283 81 93 147 329 381 381 392 440 497 361 315 436 462 364 455 499 477 366 257 367 163 380 175 147 10 0 4
385 289 214 213 273 278 246 270 253 200 146 159 243 209 95 15 0 0 0 17 102 141 103 289 294 240 61 94 71 84 63 90 127 204 283 251 260 207 0 15 0 0 6
174 138 76 89 50 60 76 111 109 86 77 52 20 17 5 0 0 0 0 1 8 33 15 22 226 111 0 4 160 37 0 0 0 0 0 0 0 0 0 12 0 0 1
73 19 4 4 51 24 22 49 65 40 49 27 0 0 0 0 0 0 0 8 34 7 0 1 2 1 0 0 79 2 0 0 0 0 0 0 0 0 0 0 0 0 0
4 32 45 51 46 43 35 19 10 12 15 0 0 0 0 0 0 0 6 54 26 0 0 0 0 0 0 0 0 0 0 0 0 0 0 0 0 0 0 0 0 0 0
44 92 46 26 46 47 36 29 24 7 0 0 0 0 0 0 0 0 9 1 0 0 0 0 0 0 0 0 0 0 0 0 0 0 0 0 0 0 0 0 0 0 0
41 52 11 64 54 12 2 0 0 0 0 0 0 0 0 0 0 0 0 0 0 0 0 0 0 0 0 0 0 0 0 0 0 0 0 0 0 0 0 0 0 0 0
0 0 0 0 2 1 0 0 0 0 0 0 0 0 0 0 0 0 0 0 0 0 0 0 0 0 0 0 0 0 0 0 0 0 0 0 0 0 0 0 0 0 0
0 0 1 0 0 0 0 0 0 0 0 0 0 0 0 0 0 0 0 0 0 0 0 0 0 0 0 0 0 0 0 0 0 0 0 0 0 0 0 0 0 0 0
0 0 1 1 0 0 0 0 0 0 0 0 0 0 0 0 0 0 0 0 0 0 0 0 0 0 0 0 0 0 0 0 0 0 0 0 0 0 0 0 0 0 0
0 0 0 0 0 0 0 0 0 0 0 0 0 0 0 0 0 0 0 0 0 0 0 0 0 0 0 0 0 0 0 0 0 0 0 0 0 0 0 0 0 0 0
0 0 0 0 0 0 0 0 0 0 0 0 0 0 0 0 0 0 0 0 0 0 0 0 0 0 0 0 0 0 0 0 0 0 0 0 0 0 0 0 0 0 0
0 0 0 0 0 0 0 0 0 0 0 0 0 0 0 0 0 0 0 0 0 0 0 0 0 0 0 0 0 0 0 0 0 0 0 0 0 0 0 0 0 0 0
0 0 0 0 0 0 0 0 0 0 0 0 0 0 0 0 0 0 0 0 0 0 0 0 0 0 0 0 0 0 0 0 0 0 0 0 0 0 0 0 0 0 0
0 0 0 0 0 0 0 0 0 0 0 0 0 0 0 0 0 0 0 0 0 0 0 0 0 0 0 0 0 0 0 0 0 0 0 0 0 0 0 0 0 0 0
0 0 0 0 0 0 0 0 0 0 0 0 0 0 0 0 0 0 0 0 0 0 0 0 0 0 0 0 0 0 0 0 0 0 0 0 0 0 0 0 0 0 0
0 0 0 0 0 0 0 0 0 0 0 0 0 0 0 0 0 0 0 0 0 0 0 0 0 0 0 0 0 0 0 0 0 0 0 0 0 0 0 0 0 0 0
0 0 0 0 0 0 0 0 0 0 0 0 0 0 0 0 0 0 0 0 0 0 0 0 0 0 0 0 0 0 0 0 0 0 0 0 0 0 0 0 0 0 0
0 0 0 0 0 0 0 0 0 0 0 0 0 0 0 0 0 0 0 0 0 0 0 0 0 0 0 0 0 0 0 0 0 0 0 0 0 0 0 0 0 0 0
0 0 0 0 0 0 0 0 0 0 0 0 0 0 0 0 0 0 0 0 0 0 0 0 0 0 0 0 0 0 0 0 0 0 0 0 0 0 0 0 0 0 0
0 0 0 0 0 0 0 0 0 0 0 0 0 0 0 0 0 0 0 0 0 0 0 0 0 0 0 0 0 0 0 0 0 0 0 0 0 0 0 0 0 0 0
CIN
-139 -136 -119 -137 -116 -96 -78 -78 -78 -79 -61 -54 -54 -48 -44 -39 -35 -35 -38 -35 -37 -33 -36 -39 -52 -52 -38 -53 -64 -66 -50 -58 -40 -54 -101 -69 -48 -92 -77 -84 -88 -90 -95
-127 -129 -125 -95 -100 -81 -74 -70 -86 -69 -65 -51 -42 -55 -58 -47 -36 -33 -29 -24 -24 -20 -32 -35 -32 -46 -46 -43 -38 -32 -29 -52 -47 -59 -72 -43 -57 -118 -73 -76 -91 -101 -106
-146 -140 -113 -90 -74 -79 -58 -60 -59 -52 -47 -49 -52 -43 -45 -45 -39 -37 -32 -33 -26 -24 -21 -25 -28 -30 -25 -30 -32 -27 -36 -38 -40 -31 -34 -85 -125 -97 -83 -85 -104 -111 -80
-156 -141 -138 -119 -83 -64 -43 -40 -41 -56 -47 -46 -47 -46 -42 -41 -39 -28 -27 -23 -23 -26 -26 -27 -25 -20 -19 -23 -24 -24 -29 -30 -37 -28 -36 -96 -79 -76 -81 -84 -110 -112 -75
-146 -141 -134 -118 -88 -47 -39 -34 -39 -38 -46 -46 -43 -43 -44 -39 -37 -34 -29 -21 -24 -26 -33 -41 -40 -41 -36 -36 -29 -22 -26 -26 -31 -26 -37 -51 -56 -66 -62 -93 -144 0 -83
-152 -122 -135 -102 -76 -42 -37 -33 -30 -31 -37 -36 -43 -38 -49 -96 -177 -154 -126 -57 -47 -44 -40 -46 -57 -70 -68 -54 -61 -64 -45 -31 -36 -42 -47 -38 -67 -55 -96 -97 -32 0 -34
-135 -127 -120 -113 -74 -65 -70 -57 -56 -62 -57 -45 -53 -65 -91 -200 0 0 0 -213 -111 -81 -99 -75 -67 -89 -145 -80 -114 -111 -129 -125 -115 -81 -56 -64 -59 -83 0 -58 0 0 -19
-108 -89 -84 -91 -85 -84 -68 -63 -59 -71 -61 -77 -114 -153 -53 0 0 0 0 -155 -209 -131 -163 -140 -71 -107 0 -100 -88 -120 0 0 0 0 0 0 0 0 0 -41 0 0 0
-51 -49 -99 -18 -16 -43 -72 -60 -63 -57 -60 -103 -22 0 0 0 0 0 0 -211 -139 -151 -2 -36 -122 -40 0 0 -119 -57 0 0 0 0 0 0 0 0 0 0 0 0 0
-3 -37 -43 -9 -21 -29 -31 -63 -83 -32 -78 0 0 0 0 0 0 0 -127 -120 -186 0 0 0 0 0 0 0 0 0 0 0 0 0 0 0 0 0 0 0 0 0 0
-45 -6 -15 -30 -1 -6 -30 -69 -55 -99 0 0 0 0 0 0 0 0 -97 -109 0 0 0 0 0 0 0 0 0 0 0 0 0 0 0 0 0 0 0 0 0 0 0
-32 -28 -46 -10 -6 -38 -77 0 0 0 0 0 0 0 0 0 0 0 0 0 0 0 0 0 0 0 0 0 0 0 0 0 0 0 0 0 0 0 0 0 0 0 0
0 0 0 -5 -5 -6 -113 0 0 0 0 0 0 0 0 0 0 0 0 0 0 0 0 0 0 0 0 0 0 0 0 0 0 0 0 0 0 0 0 0 0 0 0
0 0 0 0 0 0 0 0 0 0 0 0 0 0 0 0 0 0 0 0 0 0 0 0 0 0 0 0 0 0 0 0 0 0 0 0 0 0 0 0 0 0 0
0 0 0 0 0 0 0 0 0 0 0 0 0 0 0 0 0 0 0 0 0 0 0 0 0 0 0 0 0 0 0 0 0 0 0 0 0 0 0 0 0 0 0
0 0 0 0 0 0 0 0 0 0 0 0 0 0 0 0 0 0 0 0 0 0 0 0 0 0 0 0 0 0 0 0 0 0 0 0 0 0 0 0 0 0 0
0 0 0 0 0 0 0 0 0 0 0 0 0 0 0 0 0 0 0 0 0 0 0 0 0 0 0 0 0 0 0 0 0 0 0 0 0 0 0 0 0 0 0
0 0 0 0 0 0 0 0 0 0 0 0 0 0 0 0 0 0 0 0 0 0 0 0 0 0 0 0 0 0 0 0 0 0 0 0 0 0 0 0 0 0 0
0 0 0 0 0 0 0 0 0 0 0 0 0 0 0 0 0 0 0 0 0 0 0 0 0 0 0 0 0 0 0 0 0 0 0 0 0 0 0 0 0 0 0
0 0 0 0 0 0 0 0 0 0 0 0 0 0 0 0 0 0 0 0 0 0 0 0 0 0 0 0 0 0 0 0 0 0 0 0 0 0 0 0 0 0 0
0 0 0 0 0 0 0 0 0 0 0 0 0 0 0 0 0 0 0 0 0 0 0 0 0 0 0 0 0 0 0 0 0 0 0 0 0 0 0 0 0 0 0
0 0 0 0 0 0 0 0 0 0 0 0 0 0 0 0 0 0 0 0 0 0 0 0 0 0 0 0 0 0 0 0 0 0 0 0 0 0 0 0 0 0 0
0 0 0 0 0 0 0 0 0 0 0 0 0 0 0 0 0 0 0 0 0 0 0 0 0 0 0 0 0 0 0 0 0 0 0 0 0 0 0 0 0 0 0
0 0 0 0 0 0 0 0 0 0 0 0 0 0 0 0 0 0 0 0 0 0 0 0 0 0 0 0 0 0 0 0 0 0 0 0 0 0 0 0 0 0 0
0 0 0 0 0 0 0 0 0 0 0 0 0 0 0 0 0 0 0 0 0 0 0 0 0 0 0 0 0 0 0 0 0 0 0 0 0 0 0 0 0 0 0
0 -33 0 0 0 0 0 0 0 0 0 0 0 0 0 0 0 0 0 0 0 0 0 0 0 0 0 0 0 0 0 0 0 0 0 0 0 0 0 0 0 0 0
Wind_Speed
24 13 20 28 30 7 19 29 26 11 4 27 28 27 22 16 19 29 29 29 28 23 21 19 21 20 23 22 19 18 15 14 10 25 21 22 21 25 25 26 26 26 26
10 6 6 19 15 31 29 30 30 30 26 25 26 29 21 3 11 7 3 25 28 26 25 21 19 18 17 20 20 20 19 15 13 18 23 21 21 23 26 26 27 27 26
8 5 6 7 17 21 26 26 27 30 31 23 19 14 3 2 2 7 16 15 21 24 25 25 24 21 22 19 16 18 18 18 17 18 22 21 21 22 25 25 27 27 23
11 10 7 6 8 9 15 19 21 23 25 28 22 21 11 9 14 14 13 15 22 23 22 21 25 23 22 18 17 16 15 17 18 18 21 22 20 21 22 25 26 25 24
15 14 14 14 11 12 14 16 18 18 21 19 20 19 19 19 18 17 16 17 18 20 24 25 24 24 25 20 20 18 16 16 17 18 20 19 21 22 24 24 24 24 20
19 18 16 15 16 15 15 16 18 18 17 17 18 17 17 18 19 19 18 17 21 24 27 26 22 20 20 20 21 22 19 18 18 19 20 21 22 22 22 23 23 23 22
24 21 18 18 19 16 17 18 19 19 18 18 18 16 17 18 20 22 20 19 18 24 24 24 21 19 20 17 21 21 22 19 21 22 21 21 22 20 22 21 21 21 20
24 21 18 20 21 17 17 17 20 22 22 21 19 19 17 18 20 20 21 19 23 24 24 24 21 20 23 21 18 17 19 21 22 22 21 21 21 21 19 19 20 21 18
25 25 27 22 20 19 18 20 22 22 24 23 23 23 22 23 24 21 22 25 23 24 23 20 20 20 22 20 18 18 19 19 16 16 17 18 20 20 18 17 21 23 24
22 22 23 23 20 18 18 17 18 16 16 18 21 21 22 22 27 28 22 17 22 21 20 20 19 19 20 19 18 17 18 16 14 15 17 18 19 20 22 22 22 23 25
16 9 12 12 11 10 12 13 14 15 13 16 16 16 20 20 23 21 17 15 14 17 18 18 19 18 18 18 17 16 15 12 13 14 16 18 19 21 22 23 24 23 23
12 10 15 13 15 13 11 10 10 10 12 11 12 14 17 19 19 19 17 14 14 16 18 18 18 17 16 16 16 14 11 12 13 15 17 19 21 22 22 22 22 21 21
12 11 7 9 7 11 12 9 9 11 11 12 13 13 15 17 17 16 15 14 14 15 16 16 16 16 16 15 14 13 13 14 15 17 18 20 21 21 21 21 20 20 21
9 10 9 9 10 12 11 10 12 11 10 11 11 14 15 16 15 15 13 13 13 13 12 11 11 11 12 11 14 14 16 17 16 16 18 18 20 21 21 22 22 21 23
10 11 11 11 10 11 13 14 13 14 16 16 16 15 16 16 17 17 17 16 15 13 11 12 13 12 13 13 14 15 15 15 17 17 18 18 20 20 21 22 23 24 25
11 11 11 11 12 12 13 13 14 15 17 17 16 14 16 17 19 20 21 21 17 12 13 12 14 15 13 14 16 17 17 17 17 16 16 17 18 19 20 22 23 25 27
12 12 12 12 12 13 14 14 16 17 17 17 16 14 14 14 16 18 20 21 18 17 16 15 14 14 15 15 15 16 16 16 15 16 16 18 19 20 22 23 24 26 27
13 13 14 14 14 14 15 16 17 18 18 19 18 18 17 17 18 19 19 18 18 18 17 17 15 17 16 15 15 14 15 14 15 16 18 19 20 21 22 24 25 26 27
15 14 15 16 16 16 17 18 19 19 20 20 19 19 18 19 20 20 19 22 19 18 15 15 16 16 17 17 16 15 16 15 16 17 19 20 22 23 25 26 26 26 28
16 15 16 16 17 16 16 17 18 20 20 21 21 20 19 19 22 20 19 18 17 16 16 17 16 17 17 16 17 17 15 15 16 19 20 21 22 23 25 26 27 28 29
17 17 18 18 19 18 18 18 18 17 18 19 19 19 18 21 20 18 17 16 15 16 17 17 17 16 15 14 14 15 16 18 20 21 23 23 23 24 25 26 27 29 29
14 16 18 18 19 19 19 19 20 19 19 19 18 17 16 17 17 17 17 16 16 16 17 17 17 16 15 15 15 16 16 18 18 19 20 21 22 23 24 25 26 26 28
16 18 18 18 18 19 21 21 21 21 20 19 18 17 16 15 15 15 15 15 14 15 15 15 15 15 15 14 14 14 16 17 17 18 19 20 21 21 21 21 23 24 25
19 19 20 20 20 21 21 22 22 22 22 22 22 20 18 17 16 14 13 12 13 14 14 13 13 13 12 13 14 14 15 15 15 16 17 18 20 21 21 22 23 24 24
18 19 20 21 22 21 21 21 20 21 23 24 22 21 18 17 16 14 11 10 10 11 11 11 12 11 11 12 12 13 14 13 15 15 17 18 19 20 20 21 22 23 23
22 22 23 22 21 22 22 22 23 24 24 25 23 21 18 16 14 12 11 10 10 11 11 11 11 10 11 11 11 11 12 12 14 15 17 17 18 18 19 20 20 21 22
Wind_Direction
171 161 168 184 193 276 265 235 252 291 136 208 223 213 186 171 262 245 241 249 261 287 297 306 301 307 299 305 321 336 351 1 243 315 343 344 350 335 341 346 346 349 354
161 182 191 262 269 235 245 230 230 221 259 265 264 247 191 301 303 316 293 272 262 279 285 301 309 315 318 312 317 321 329 345 358 238 329 341 346 343 317 324 335 340 343
251 230 239 255 269 265 257 259 252 229 236 273 285 298 304 194 301 320 298 301 292 288 285 287 292 303 304 313 322 322 326 333 343 342 330 336 340 344 332 340 331 332 355
252 259 248 230 252 265 277 278 276 270 266 261 281 288 304 301 301 302 304 304 295 291 296 297 288 298 302 314 319 325 331 332 332 335 332 334 345 345 347 339 336 348 349
256 258 265 270 267 272 277 282 284 286 282 285 286 291 291 294 296 298 299 300 300 298 293 292 294 294 294 305 309 314 324 328 331 334 334 338 337 338 338 342 342 344 1
257 259 263 267 271 272 276 281 283 285 290 290 290 292 296 298 297 298 297 300 296 292 289 292 297 303 306 307 305 307 316 322 325 327 328 327 329 334 337 339 344 347 345
260 261 262 264 267 271 274 276 281 283 292 293 291 293 294 298 297 294 297 298 304 291 294 295 301 306 301 312 306 311 308 319 316 315 321 322 325 332 333 339 345 348 351
265 259 263 269 266 271 277 279 278 279 290 296 295 290 297 297 296 298 300 301 296 296 299 299 300 306 297 300 311 314 315 318 316 317 321 324 326 325 332 337 338 341 349
265 258 267 267 275 273 275 281 282 284 285 293 292 291 290 291 291 294 306 295 294 289 295 302 303 303 300 304 308 312 315 320 334 340 341 343 342 343 341 342 334 333 333
295 274 272 280 276 275 275 285 292 293 294 292 294 298 295 297 293 295 299 296 283 291 295 301 306 306 306 309 309 309 310 316 324 332 333 338 340 339 340 339 335 333 332
297 317 300 293 291 290 287 292 294 295 304 297 305 310 300 311 298 301 306 303 296 297 297 301 305 308 310 312 313 313 314 319 325 329 330 331 335 336 336 339 341 338 337
298 346 295 303 287 299 302 300 309 311 307 317 318 318 314 311 315 307 308 314 304 294 299 305 308 314 314 316 322 323 327 322 324 323 323 323 327 331 334 339 343 348 350
21 26 30 7 33 321 299 330 331 311 323 322 321 323 324 314 327 329 326 323 316 309 307 307 312 315 317 319 321 328 330 321 320 321 321 322 328 332 335 334 337 340 343
23 18 4 5 337 327 322 336 323 330 340 334 336 327 322 324 329 331 333 339 337 332 337 338 346 348 341 336 325 328 322 318 320 330 324 329 329 330 331 331 329 327 328
5 7 358 355 347 335 335 324 327 326 321 317 316 318 317 321 317 315 315 320 324 329 331 323 320 324 327 326 325 331 324 323 319 324 322 325 327 328 332 331 331 330 327
352 357 2 355 347 344 342 339 339 339 332 326 319 316 318 315 313 313 312 310 317 325 322 316 309 311 317 316 317 320 326 324 326 326 326 327 328 329 330 328 328 329 327
352 350 347 353 348 341 335 331 326 325 328 333 330 326 318 316 317 318 317 315 312 312 307 308 308 309 312 315 319 321 321 329 333 329 329 327 326 327 328 330 331 330 329
348 345 337 336 338 337 334 330 329 327 325 322 321 316 312 310 311 311 313 316 310 310 304 300 304 307 314 315 321 325 326 328 328 327 326 326 326 327 328 329 330 330 331
346 345 342 338 332 327 325 324 323 323 322 321 321 319 319 315 309 307 305 303 301 298 299 297 301 308 307 309 317 318 319 323 323 322 323 324 323 322 324 326 328 329 329
345 348 346 344 342 339 332 327 323 321 320 318 317 317 320 317 312 311 306 305 303 299 297 299 306 305 308 309 308 310 318 322 322 320 321 323 325 325 325 325 326 326 329
338 338 338 336 335 333 331 328 326 324 321 318 316 315 315 314 313 312 310 307 305 305 303 303 305 307 311 314 315 315 316 314 313 315 315 318 321 323 325 326 325 326 328
346 341 335 332 330 329 327 324 321 321 319 316 315 314 315 317 317 314 312 311 308 306 306 306 306 308 310 309 312 314 316 316 320 325 327 328 329 330 329 328 329 330 329
337 333 331 330 327 324 323 322 320 320 320 319 313 308 308 313 314 314 313 312 312 313 314 314 313 312 313 315 319 320 319 322 328 332 334 334 337 338 339 340 338 337 338
327 326 325 323 321 318 317 317 317 315 314 314 309 305 301 301 304 309 312 315 317 318 318 316 315 316 318 319 321 323 327 329 332 334 336 340 340 339 340 338 338 339 341
323 321 319 318 316 315 312 312 310 311 309 305 304 302 300 297 297 300 305 310 317 322 325 325 325 324 323 322 323 326 330 333 335 337 338 340 341 342 344 345 345 346 345
328 322 318 315 312 310 308 306 305 304 303 303 302 302 302 298 295 293 294 298 307 315 319 321 322 324 326 326 327 329 332 334 336 339 341 342 344 346 347 347 347 348 348